Time,TemperatureF,DewpointF,PressureIn,WindDirection,WindDirectionDegrees,WindSpeedMPH,WindSpeedGustMPH,Humidity,HourlyPrecipIn,Conditions,Clouds,dailyrainin,SoftwareType,DateUTC
2013-08-05 00:05:00,53.0,51.9,30.00,SW,223,4.0,8.0,96,0.00,,,0.00,Wunderground v.1.15,2013-08-05 07:05:00,
2013-08-05 00:15:00,53.0,51.9,30.00,SW,221,4.0,5.0,96,0.00,,,0.00,Wunderground v.1.15,2013-08-05 07:15:00,
2013-08-05 00:20:00,53.0,51.9,30.01,SW,221,4.0,4.0,96,0.00,,,0.00,Wunderground v.1.15,2013-08-05 07:20:00,
2013-08-05 00:30:00,52.9,51.8,30.01,SW,227,3.0,3.0,96,0.00,,,0.00,Wunderground v.1.15,2013-08-05 07:30:00,
2013-08-05 00:35:00,52.8,51.7,30.01,SW,227,3.0,3.0,96,0.00,,,0.00,Wunderground v.1.15,2013-08-05 07:35:00,
2013-08-05 00:40:00,52.8,51.7,30.01,SW,227,3.0,3.0,96,0.00,,,0.00,Wunderground v.1.15,2013-08-05 07:40:00,
2013-08-05 00:45:00,52.7,51.6,30.01,SW,228,3.0,3.0,96,0.00,,,0.00,Wunderground v.1.15,2013-08-05 07:45:00,
2013-08-05 00:50:00,52.7,51.6,30.01,SW,229,3.0,3.0,96,0.00,,,0.00,Wunderground v.1.15,2013-08-05 07:50:00,
2013-08-05 01:00:00,52.6,51.5,30.01,SW,230,2.0,3.0,96,0.00,,,0.00,Wunderground v.1.15,2013-08-05 08:00:00,
2013-08-05 01:05:00,52.5,51.4,30.01,SW,230,3.0,4.0,96,0.00,,,0.00,Wunderground v.1.15,2013-08-05 08:05:00,
2013-08-05 01:10:00,52.4,51.3,30.00,SW,230,3.0,3.0,96,0.00,,,0.00,Wunderground v.1.15,2013-08-05 08:10:00,
2013-08-05 01:14:00,52.5,51.4,30.01,SW,231,3.0,10.0,96,0.00,,,0.00,Wunderground v.1.15,2013-08-05 08:14:00,
2013-08-05 01:20:00,52.5,51.4,30.01,SW,231,3.0,3.0,96,0.00,,,0.00,Wunderground v.1.15,2013-08-05 08:20:00,
2013-08-05 01:29:00,52.4,51.3,30.01,SW,232,3.0,10.0,96,0.00,,,0.00,Wunderground v.1.15,2013-08-05 08:29:00,
2013-08-05 01:35:00,52.4,51.3,30.01,SW,232,3.0,10.0,96,0.00,,,0.00,Wunderground v.1.15,2013-08-05 08:35:00,
2013-08-05 01:40:00,52.4,51.3,30.00,SW,232,2.0,10.0,96,0.00,,,0.00,Wunderground v.1.15,2013-08-05 08:40:00,
2013-08-05 01:45:00,52.3,51.2,30.00,SW,233,2.0,10.0,96,0.00,,,0.00,Wunderground v.1.15,2013-08-05 08:45:00,
2013-08-05 01:50:00,52.3,51.2,30.00,SW,233,3.0,3.0,96,0.00,,,0.00,Wunderground v.1.15,2013-08-05 08:50:00,
2013-08-05 02:00:00,52.4,51.3,30.00,SW,233,1.0,10.0,96,0.00,,,0.00,Wunderground v.1.15,2013-08-05 09:00:00,
2013-08-05 02:04:00,52.4,51.3,30.00,SW,233,1.0,10.0,96,0.00,,,0.00,Wunderground v.1.15,2013-08-05 09:04:00,
2013-08-05 02:09:00,52.4,51.3,30.00,SW,233,1.0,1.0,96,0.00,,,0.00,Wunderground v.1.15,2013-08-05 09:09:00,
2013-08-05 02:20:00,52.5,51.4,30.00,SW,232,2.0,10.0,96,0.00,,,0.00,Wunderground v.1.15,2013-08-05 09:20:00,
2013-08-05 02:30:00,52.6,51.5,30.00,SW,230,2.0,10.0,96,0.00,,,0.00,Wunderground v.1.15,2013-08-05 09:30:00,
2013-08-05 02:34:00,52.6,51.5,30.00,SW,230,2.0,10.0,96,0.00,,,0.00,Wunderground v.1.15,2013-08-05 09:34:00,
2013-08-05 02:44:00,52.6,51.5,30.00,SW,230,1.0,10.0,96,0.00,,,0.00,Wunderground v.1.15,2013-08-05 09:44:00,
2013-08-05 02:50:00,52.6,51.5,30.00,SW,230,1.0,1.0,96,0.00,,,0.00,Wunderground v.1.15,2013-08-05 09:50:00,
2013-08-05 02:55:00,52.6,51.5,30.00,SW,230,1.0,10.0,96,0.00,,,0.00,Wunderground v.1.15,2013-08-05 09:55:00,
2013-08-05 03:05:00,52.6,51.5,30.00,SW,230,2.0,10.0,96,0.00,,,0.00,Wunderground v.1.15,2013-08-05 10:05:00,
2013-08-05 03:09:00,52.6,51.8,30.00,SW,230,2.0,10.0,97,0.00,,,0.00,Wunderground v.1.15,2013-08-05 10:09:00,
2013-08-05 03:14:00,52.6,51.8,30.00,SW,230,1.0,10.0,97,0.00,,,0.00,Wunderground v.1.15,2013-08-05 10:14:00,
2013-08-05 03:25:00,52.6,51.8,30.00,SW,230,0.0,10.0,97,0.00,,,0.00,Wunderground v.1.15,2013-08-05 10:25:00,
2013-08-05 03:30:00,52.6,51.8,30.00,SW,230,0.0,10.0,97,0.00,,,0.00,Wunderground v.1.15,2013-08-05 10:30:00,
2013-08-05 03:34:00,52.6,51.8,30.00,SW,230,0.0,10.0,97,0.00,,,0.00,Wunderground v.1.15,2013-08-05 10:34:00,
2013-08-05 03:45:00,52.5,51.7,30.00,SW,230,0.0,10.0,97,0.00,,,0.00,Wunderground v.1.15,2013-08-05 10:45:00,
2013-08-05 03:49:00,52.5,51.7,30.00,SW,230,0.0,10.0,97,0.00,,,0.00,Wunderground v.1.15,2013-08-05 10:49:00,
2013-08-05 04:00:00,52.5,51.7,30.00,SW,230,0.0,10.0,97,0.00,,,0.00,Wunderground v.1.15,2013-08-05 11:00:00,
2013-08-05 04:04:00,52.5,51.7,30.00,SW,230,0.0,10.0,97,0.00,,,0.00,Wunderground v.1.15,2013-08-05 11:04:00,
2013-08-05 04:15:00,52.4,51.6,29.99,SW,230,0.0,10.0,97,0.00,,,0.00,Wunderground v.1.15,2013-08-05 11:15:00,
2013-08-05 04:20:00,52.4,51.6,29.99,SW,230,0.0,10.0,97,0.00,,,0.00,Wunderground v.1.15,2013-08-05 11:20:00,
2013-08-05 04:25:00,52.4,51.6,29.99,SW,230,0.0,10.0,97,0.00,,,0.00,Wunderground v.1.15,2013-08-05 11:25:00,
2013-08-05 04:30:00,52.3,51.5,29.99,SW,230,0.0,10.0,97,0.00,,,0.00,Wunderground v.1.15,2013-08-05 11:30:00,
2013-08-05 04:39:00,52.4,51.6,30.00,SW,230,0.0,10.0,97,0.00,,,0.00,Wunderground v.1.15,2013-08-05 11:39:00,
2013-08-05 04:45:00,52.4,51.6,30.00,SW,230,0.0,10.0,97,0.00,,,0.00,Wunderground v.1.15,2013-08-05 11:45:00,
2013-08-05 04:50:00,52.3,51.5,29.99,SW,230,0.0,10.0,97,0.00,,,0.00,Wunderground v.1.15,2013-08-05 11:50:00,
2013-08-05 04:55:00,52.4,51.6,30.00,SW,230,0.0,10.0,97,0.00,,,0.00,Wunderground v.1.15,2013-08-05 11:55:00,
2013-08-05 05:05:00,52.4,51.6,30.00,SW,230,0.0,10.0,97,0.00,,,0.00,Wunderground v.1.15,2013-08-05 12:05:00,
2013-08-05 05:10:00,52.4,51.6,30.00,SW,230,0.0,10.0,97,0.00,,,0.00,Wunderground v.1.15,2013-08-05 12:10:00,
2013-08-05 05:19:00,52.4,51.6,30.00,SW,230,0.0,10.0,97,0.00,,,0.00,Wunderground v.1.15,2013-08-05 12:19:00,
2013-08-05 05:34:00,52.3,51.2,30.00,SSW,209,0.0,10.0,96,0.00,,,0.00,Wunderground v.1.15,2013-08-05 12:34:00,
2013-08-05 05:39:00,52.3,51.5,30.00,SSW,209,0.0,10.0,97,0.00,,,0.00,Wunderground v.1.15,2013-08-05 12:39:00,
2013-08-05 05:45:00,52.3,51.2,30.00,SSW,209,0.0,10.0,96,0.00,,,0.00,Wunderground v.1.15,2013-08-05 12:45:00,
2013-08-05 05:50:00,52.3,51.2,30.00,SSW,209,0.0,10.0,96,0.00,,,0.00,Wunderground v.1.15,2013-08-05 12:50:00,
2013-08-05 06:00:00,52.3,51.2,30.00,SSW,209,0.0,10.0,96,0.00,,,0.00,Wunderground v.1.15,2013-08-05 13:00:00,
2013-08-05 06:14:00,52.3,51.2,30.00,SSW,209,0.0,10.0,96,0.00,,,0.00,Wunderground v.1.15,2013-08-05 13:14:00,
2013-08-05 06:20:00,52.3,51.2,30.01,SSW,209,0.0,10.0,96,0.00,,,0.00,Wunderground v.1.15,2013-08-05 13:20:00,
2013-08-05 06:25:00,52.3,51.2,30.01,SSW,209,0.0,10.0,96,0.00,,,0.00,Wunderground v.1.15,2013-08-05 13:25:00,
2013-08-05 06:35:00,52.3,51.2,30.01,SSW,209,0.0,10.0,96,0.00,,,0.00,Wunderground v.1.15,2013-08-05 13:35:00,
2013-08-05 06:39:00,52.3,51.2,30.01,SSW,213,0.0,10.0,96,0.00,,,0.00,Wunderground v.1.15,2013-08-05 13:39:00,
2013-08-05 06:50:00,52.4,51.6,30.01,SSW,213,0.0,10.0,97,0.00,,,0.00,Wunderground v.1.15,2013-08-05 13:50:00,
2013-08-05 07:00:00,52.5,51.7,30.01,South,173,0.0,10.0,97,0.00,,,0.00,Wunderground v.1.15,2013-08-05 14:00:00,
2013-08-05 07:04:00,52.6,51.8,30.01,South,173,0.0,10.0,97,0.00,,,0.00,Wunderground v.1.15,2013-08-05 14:04:00,
2013-08-05 07:10:00,52.6,51.8,30.01,South,173,0.0,10.0,97,0.00,,,0.00,Wunderground v.1.15,2013-08-05 14:10:00,
2013-08-05 07:20:00,52.7,51.6,30.02,South,173,0.0,10.0,96,0.00,,,0.00,Wunderground v.1.15,2013-08-05 14:20:00,
2013-08-05 07:30:00,52.8,51.7,30.02,South,173,0.0,10.0,96,0.00,,,0.00,Wunderground v.1.15,2013-08-05 14:30:00,
2013-08-05 07:45:00,53.1,52.0,30.02,South,177,0.0,10.0,96,0.00,,,0.00,Wunderground v.1.15,2013-08-05 14:45:00,
2013-08-05 07:54:00,53.2,52.1,30.02,South,177,0.0,10.0,96,0.00,,,0.00,Wunderground v.1.15,2013-08-05 14:54:00,
2013-08-05 08:00:00,53.2,52.1,30.02,South,177,0.0,10.0,96,0.00,,,0.00,Wunderground v.1.15,2013-08-05 15:00:00,
2013-08-05 08:05:00,53.3,52.2,30.01,South,177,0.0,10.0,96,0.00,,,0.00,Wunderground v.1.15,2013-08-05 15:05:00,
2013-08-05 08:09:00,53.3,52.2,30.02,South,177,0.0,10.0,96,0.00,,,0.00,Wunderground v.1.15,2013-08-05 15:09:00,
2013-08-05 08:15:00,53.3,52.2,30.02,South,177,0.0,10.0,96,0.00,,,0.00,Wunderground v.1.15,2013-08-05 15:15:00,
2013-08-05 08:25:00,53.6,52.5,30.02,South,171,0.0,10.0,96,0.00,,,0.00,Wunderground v.1.15,2013-08-05 15:25:00,
2013-08-05 08:30:00,53.7,52.6,30.02,South,171,0.0,10.0,96,0.00,,,0.00,Wunderground v.1.15,2013-08-05 15:30:00,
2013-08-05 08:35:00,53.7,52.6,30.02,South,171,0.0,10.0,96,0.00,,,0.00,Wunderground v.1.15,2013-08-05 15:35:00,
2013-08-05 08:39:00,53.7,52.6,30.02,South,171,0.0,10.0,96,0.00,,,0.00,Wunderground v.1.15,2013-08-05 15:39:00,
2013-08-05 08:45:00,53.9,52.5,30.02,South,171,0.0,10.0,95,0.00,,,0.00,Wunderground v.1.15,2013-08-05 15:45:00,
2013-08-05 08:55:00,54.1,52.7,30.02,South,171,0.0,10.0,95,0.00,,,0.00,Wunderground v.1.15,2013-08-05 15:55:00,
2013-08-05 09:05:00,54.3,52.9,30.02,SSE,165,0.0,10.0,95,0.00,,,0.00,Wunderground v.1.15,2013-08-05 16:05:00,
2013-08-05 09:09:00,54.4,53.0,30.02,SE,145,0.0,10.0,95,0.00,,,0.00,Wunderground v.1.15,2013-08-05 16:09:00,
2013-08-05 09:24:00,54.6,53.2,30.03,West,262,0.0,10.0,95,0.00,,,0.00,Wunderground v.1.15,2013-08-05 16:24:00,
2013-08-05 09:30:00,54.7,53.3,30.03,West,274,0.0,10.0,95,0.00,,,0.00,Wunderground v.1.15,2013-08-05 16:30:00,
2013-08-05 09:35:00,54.8,53.4,30.03,West,281,0.0,10.0,95,0.00,,,0.00,Wunderground v.1.15,2013-08-05 16:35:00,
2013-08-05 09:44:00,54.9,53.2,30.03,NW,316,1.0,10.0,94,0.00,,,0.00,Wunderground v.1.15,2013-08-05 16:44:00,
2013-08-05 09:50:00,55.0,53.6,30.03,NW,317,1.0,10.0,95,0.00,,,0.00,Wunderground v.1.15,2013-08-05 16:50:00,
2013-08-05 09:55:00,55.0,53.3,30.03,SSW,204,2.0,10.0,94,0.00,,,0.00,Wunderground v.1.15,2013-08-05 16:55:00,
2013-08-05 09:59:00,54.9,53.2,30.03,SSE,167,2.0,10.0,94,0.00,,,0.00,Wunderground v.1.15,2013-08-05 16:59:00,
2013-08-05 10:10:00,54.9,53.2,30.03,SSE,163,1.0,10.0,94,0.00,,,0.00,Wunderground v.1.15,2013-08-05 17:10:00,
2013-08-05 10:15:00,55.0,53.3,30.04,SSE,163,1.0,10.0,94,0.00,,,0.00,Wunderground v.1.15,2013-08-05 17:15:00,
2013-08-05 10:20:00,55.1,53.4,30.03,SSE,159,1.0,1.0,94,0.00,,,0.00,Wunderground v.1.15,2013-08-05 17:20:00,
2013-08-05 10:25:00,55.2,53.2,30.03,SSE,159,1.0,10.0,93,0.00,,,0.00,Wunderground v.1.15,2013-08-05 17:25:00,
2013-08-05 10:30:00,55.4,53.4,30.03,SSE,158,1.0,10.0,93,0.00,,,0.00,Wunderground v.1.15,2013-08-05 17:30:00,
2013-08-05 10:39:00,55.5,53.2,30.04,SSE,158,1.0,1.0,92,0.00,,,0.00,Wunderground v.1.15,2013-08-05 17:39:00,
2013-08-05 10:45:00,55.8,53.8,30.04,SSE,158,0.0,10.0,93,0.00,,,0.00,Wunderground v.1.15,2013-08-05 17:45:00,
2013-08-05 10:50:00,55.9,53.6,30.04,SE,140,1.0,1.0,92,0.00,,,0.00,Wunderground v.1.15,2013-08-05 17:50:00,
2013-08-05 11:00:00,56.0,53.7,30.04,SSE,166,2.0,2.0,92,0.00,,,0.00,Wunderground v.1.15,2013-08-05 18:00:00,
2013-08-05 11:05:00,56.2,53.9,30.03,South,188,1.0,10.0,92,0.00,,,0.00,Wunderground v.1.15,2013-08-05 18:05:00,
2013-08-05 11:10:00,56.3,54.0,30.03,South,173,1.0,1.0,92,0.00,,,0.00,Wunderground v.1.15,2013-08-05 18:10:00,
2013-08-05 11:20:00,56.7,54.4,30.03,South,184,1.0,1.0,92,0.00,,,0.00,Wunderground v.1.15,2013-08-05 18:20:00,
2013-08-05 11:25:00,56.9,54.3,30.03,South,187,1.0,2.0,91,0.00,,,0.00,Wunderground v.1.15,2013-08-05 18:25:00,
2013-08-05 11:30:00,56.9,54.3,30.03,South,190,2.0,10.0,91,0.00,,,0.00,Wunderground v.1.15,2013-08-05 18:30:00,
2013-08-05 11:35:00,56.8,54.2,30.03,South,189,2.0,10.0,91,0.00,,,0.00,Wunderground v.1.15,2013-08-05 18:35:00,
2013-08-05 11:45:00,57.1,54.5,30.02,South,188,1.0,10.0,91,0.00,,,0.00,Wunderground v.1.15,2013-08-05 18:45:00,
2013-08-05 11:50:00,57.3,54.4,30.03,SSW,200,2.0,10.0,90,0.00,,,0.00,Wunderground v.1.15,2013-08-05 18:50:00,
2013-08-05 11:55:00,57.5,54.6,30.02,South,189,3.0,10.0,90,0.00,,,0.00,Wunderground v.1.15,2013-08-05 18:55:00,
2013-08-05 12:00:00,57.7,54.8,30.02,SSW,194,3.0,3.0,90,0.00,,,0.00,Wunderground v.1.15,2013-08-05 19:00:00,
2013-08-05 12:05:00,57.9,54.7,30.02,SSW,198,3.0,5.0,89,0.00,,,0.00,Wunderground v.1.15,2013-08-05 19:05:00,
2013-08-05 12:20:00,58.2,54.7,30.02,South,180,3.0,3.0,88,0.00,,,0.00,Wunderground v.1.15,2013-08-05 19:20:00,
2013-08-05 12:25:00,58.7,55.2,30.02,South,182,2.0,4.0,88,0.00,,,0.00,Wunderground v.1.15,2013-08-05 19:25:00,
2013-08-05 12:40:00,60.0,55.5,30.02,South,176,4.0,10.0,85,0.00,,,0.00,Wunderground v.1.15,2013-08-05 19:40:00,
2013-08-05 12:45:00,60.0,55.5,30.02,South,188,4.0,10.0,85,0.00,,,0.00,Wunderground v.1.15,2013-08-05 19:45:00,
2013-08-05 12:55:00,60.6,55.1,30.02,South,187,5.0,10.0,82,0.00,,,0.00,Wunderground v.1.15,2013-08-05 19:55:00,
2013-08-05 13:05:00,60.5,55.0,30.02,SW,219,5.0,10.0,82,0.00,,,0.00,Wunderground v.1.15,2013-08-05 20:05:00,
2013-08-05 13:10:00,60.5,55.3,30.02,SSW,210,7.0,10.0,83,0.00,,,0.00,Wunderground v.1.15,2013-08-05 20:10:00,
2013-08-05 13:15:00,60.7,55.2,30.02,SSW,205,7.0,10.0,82,0.00,,,0.00,Wunderground v.1.15,2013-08-05 20:15:00,
2013-08-05 13:25:00,61.4,55.5,30.02,SW,223,7.0,10.0,81,0.00,,,0.00,Wunderground v.1.15,2013-08-05 20:25:00,
2013-08-05 13:30:00,61.7,55.1,30.01,SSW,200,6.0,10.0,79,0.00,,,0.00,Wunderground v.1.15,2013-08-05 20:30:00,
2013-08-05 13:35:00,62.2,55.3,30.01,SW,225,8.0,11.0,78,0.00,,,0.00,Wunderground v.1.15,2013-08-05 20:35:00,
2013-08-05 13:45:00,61.8,55.2,30.01,SW,223,8.0,10.0,79,0.00,,,0.00,Wunderground v.1.15,2013-08-05 20:45:00,
2013-08-05 13:50:00,62.2,55.3,30.01,SW,229,7.0,12.0,78,0.00,,,0.00,Wunderground v.1.15,2013-08-05 20:50:00,
2013-08-05 14:00:00,62.0,54.7,30.01,SSW,201,10.0,10.0,77,0.00,,,0.00,Wunderground v.1.15,2013-08-05 21:00:00,
2013-08-05 14:05:00,62.1,54.8,30.01,SW,227,10.0,10.0,77,0.00,,,0.00,Wunderground v.1.15,2013-08-05 21:05:00,
2013-08-05 14:10:00,61.8,54.5,30.01,SW,226,9.0,9.0,77,0.00,,,0.00,Wunderground v.1.15,2013-08-05 21:10:00,
2013-08-05 14:20:00,61.2,53.9,30.01,SW,216,10.0,15.0,77,0.00,,,0.00,Wunderground v.1.15,2013-08-05 21:20:00,
2013-08-05 14:30:00,60.0,53.5,30.01,SSW,211,11.0,11.0,79,0.00,,,0.00,Wunderground v.1.15,2013-08-05 21:30:00,
2013-08-05 14:35:00,60.3,53.8,30.01,SW,227,9.0,11.0,79,0.00,,,0.00,Wunderground v.1.15,2013-08-05 21:35:00,
2013-08-05 14:45:00,60.2,53.7,30.01,SW,219,10.0,10.0,79,0.00,,,0.00,Wunderground v.1.15,2013-08-05 21:45:00,
2013-08-05 14:50:00,60.7,53.8,30.01,SW,221,9.0,9.0,78,0.00,,,0.00,Wunderground v.1.15,2013-08-05 21:50:00,
2013-08-05 15:05:00,60.3,53.4,30.00,WSW,246,10.0,11.0,78,0.00,,,0.00,Wunderground v.1.15,2013-08-05 22:05:00,
2013-08-05 15:10:00,60.8,53.5,29.99,SW,219,10.0,10.0,77,0.00,,,0.00,Wunderground v.1.15,2013-08-05 22:10:00,
2013-08-05 15:15:00,60.8,53.5,29.99,SSW,209,10.0,10.0,77,0.00,,,0.00,Wunderground v.1.15,2013-08-05 22:15:00,
2013-08-05 15:30:00,61.3,53.3,29.99,SSE,155,10.0,10.0,75,0.00,,,0.00,Wunderground v.1.15,2013-08-05 22:30:00,
2013-08-05 15:35:00,60.6,53.3,29.99,South,172,9.0,14.0,77,0.00,,,0.00,Wunderground v.1.15,2013-08-05 22:35:00,
2013-08-05 15:40:00,60.7,53.8,29.99,SSW,204,9.0,9.0,78,0.00,,,0.00,Wunderground v.1.15,2013-08-05 22:40:00,
2013-08-05 15:50:00,61.3,53.7,29.99,SSW,213,8.0,11.0,76,0.00,,,0.00,Wunderground v.1.15,2013-08-05 22:50:00,
2013-08-05 15:55:00,61.1,53.5,29.99,South,178,8.0,11.0,76,0.00,,,0.00,Wunderground v.1.15,2013-08-05 22:55:00,
2013-08-05 16:00:00,60.6,53.0,29.98,South,183,9.0,9.0,76,0.00,,,0.00,Wunderground v.1.15,2013-08-05 23:00:00,
2013-08-05 16:05:00,60.0,52.8,29.99,WSW,240,10.0,11.0,77,0.00,,,0.00,Wunderground v.1.15,2013-08-05 23:05:00,
2013-08-05 16:15:00,59.2,52.7,29.98,SW,216,9.0,11.0,79,0.00,,,0.00,Wunderground v.1.15,2013-08-05 23:15:00,
2013-08-05 16:25:00,58.2,52.4,29.98,SSW,205,10.0,13.0,81,0.00,,,0.00,Wunderground v.1.15,2013-08-05 23:25:00,
2013-08-05 16:30:00,57.5,52.4,29.98,South,188,10.0,12.0,83,0.00,,,0.00,Wunderground v.1.15,2013-08-05 23:30:00,
2013-08-05 16:35:00,57.2,52.1,29.98,SSE,159,10.0,12.0,83,0.00,,,0.00,Wunderground v.1.15,2013-08-05 23:35:00,
2013-08-05 16:40:00,56.7,52.2,29.98,South,185,9.0,9.0,85,0.00,,,0.00,Wunderground v.1.15,2013-08-05 23:40:00,
2013-08-05 16:50:00,56.4,51.9,29.98,SSW,208,8.0,8.0,85,0.00,,,0.00,Wunderground v.1.15,2013-08-05 23:50:00,
2013-08-05 17:00:00,56.8,52.0,29.98,SSW,192,8.0,8.0,84,0.00,,,0.00,Wunderground v.1.15,2013-08-06 00:00:00,
2013-08-05 17:05:00,56.9,52.1,29.98,SW,219,7.0,13.0,84,0.00,,,0.00,Wunderground v.1.15,2013-08-06 00:05:00,
2013-08-05 17:15:00,56.5,52.4,29.97,SW,225,10.0,15.0,86,0.00,,,0.00,Wunderground v.1.15,2013-08-06 00:15:00,
2013-08-05 17:20:00,56.3,52.2,29.97,SSW,212,9.0,9.0,86,0.00,,,0.00,Wunderground v.1.15,2013-08-06 00:20:00,
2013-08-05 17:30:00,56.1,52.0,29.98,SSW,200,8.0,10.0,86,0.00,,,0.00,Wunderground v.1.15,2013-08-06 00:30:00,
2013-08-05 17:35:00,55.7,51.9,29.97,SW,221,9.0,11.0,87,0.00,,,0.00,Wunderground v.1.15,2013-08-06 00:35:00,
2013-08-05 17:40:00,55.5,52.0,29.97,SW,221,9.0,11.0,88,0.00,,,0.00,Wunderground v.1.15,2013-08-06 00:40:00,
2013-08-05 17:45:00,55.1,51.6,29.97,SW,219,9.0,11.0,88,0.00,,,0.00,Wunderground v.1.15,2013-08-06 00:45:00,
2013-08-05 18:00:00,54.6,51.7,29.97,SW,227,7.0,7.0,90,0.00,,,0.00,Wunderground v.1.15,2013-08-06 01:00:00,
2013-08-05 18:05:00,54.6,51.7,29.97,South,178,7.0,10.0,90,0.00,,,0.00,Wunderground v.1.15,2013-08-06 01:05:00,
2013-08-05 18:10:00,54.6,51.7,29.97,SW,222,7.0,11.0,90,0.00,,,0.00,Wunderground v.1.15,2013-08-06 01:10:00,
2013-08-05 18:20:00,54.7,51.5,29.97,SSW,210,7.0,7.0,89,0.00,,,0.00,Wunderground v.1.15,2013-08-06 01:20:00,
2013-08-05 18:30:00,54.1,51.5,29.97,SSW,213,7.0,10.0,91,0.00,,,0.00,Wunderground v.1.15,2013-08-06 01:30:00,
2013-08-05 18:35:00,54.0,51.4,29.97,SSW,213,9.0,10.0,91,0.00,,,0.00,Wunderground v.1.15,2013-08-06 01:35:00,
2013-08-05 18:40:00,53.9,51.3,29.97,SSW,206,8.0,8.0,91,0.00,,,0.00,Wunderground v.1.15,2013-08-06 01:40:00,
2013-08-05 18:45:00,53.8,51.2,29.97,SW,215,8.0,10.0,91,0.00,,,0.00,Wunderground v.1.15,2013-08-06 01:45:00,
2013-08-05 18:50:00,53.6,51.3,29.97,SW,218,8.0,10.0,92,0.00,,,0.00,Wunderground v.1.15,2013-08-06 01:50:00,
2013-08-05 19:00:00,53.3,51.0,29.97,SW,223,7.0,10.0,92,0.00,,,0.00,Wunderground v.1.15,2013-08-06 02:00:00,
2013-08-05 19:05:00,53.4,51.1,29.97,SW,218,8.0,10.0,92,0.00,,,0.00,Wunderground v.1.15,2013-08-06 02:05:00,
2013-08-05 19:10:00,53.2,50.9,29.97,SSW,200,6.0,6.0,92,0.00,,,0.00,Wunderground v.1.15,2013-08-06 02:10:00,
2013-08-05 19:15:00,53.0,51.0,29.97,SSW,211,5.0,10.0,93,0.00,,,0.00,Wunderground v.1.15,2013-08-06 02:15:00,
2013-08-05 19:20:00,53.0,51.0,29.97,SSW,213,5.0,10.0,93,0.00,,,0.00,Wunderground v.1.15,2013-08-06 02:20:00,
2013-08-05 19:25:00,53.0,51.0,29.97,SW,223,5.0,10.0,93,0.00,,,0.00,Wunderground v.1.15,2013-08-06 02:25:00,
2013-08-05 19:35:00,53.0,51.0,29.97,SSW,205,6.0,10.0,93,0.00,,,0.00,Wunderground v.1.15,2013-08-06 02:35:00,
2013-08-05 19:40:00,53.0,51.0,29.97,SSW,207,5.0,5.0,93,0.00,,,0.00,Wunderground v.1.15,2013-08-06 02:40:00,
2013-08-05 19:45:00,53.0,51.0,29.98,SW,217,6.0,7.0,93,0.00,,,0.00,Wunderground v.1.15,2013-08-06 02:45:00,
2013-08-05 19:50:00,52.9,50.9,29.98,SW,224,7.0,10.0,93,0.00,,,0.00,Wunderground v.1.15,2013-08-06 02:50:00,
2013-08-05 19:55:00,52.9,50.9,29.98,SW,218,6.0,10.0,93,0.00,,,0.00,Wunderground v.1.15,2013-08-06 02:55:00,
2013-08-05 20:00:00,52.8,50.8,29.97,SW,229,7.0,11.0,93,0.00,,,0.00,Wunderground v.1.15,2013-08-06 03:00:00,
2013-08-05 20:20:00,52.6,50.6,29.97,SW,214,7.0,10.0,93,0.00,,,0.00,Wunderground v.1.15,2013-08-06 03:20:00,
2013-08-05 20:25:00,52.4,50.7,29.97,SSW,211,7.0,10.0,94,0.00,,,0.00,Wunderground v.1.15,2013-08-06 03:25:00,
2013-08-05 20:30:00,52.3,50.6,29.98,SSW,212,6.0,10.0,94,0.00,,,0.00,Wunderground v.1.15,2013-08-06 03:30:00,
2013-08-05 20:35:00,52.4,51.0,29.98,SW,225,6.0,10.0,95,0.00,,,0.00,Wunderground v.1.15,2013-08-06 03:35:00,
2013-08-05 20:40:00,52.4,51.0,29.98,SW,215,6.0,10.0,95,0.00,,,0.00,Wunderground v.1.15,2013-08-06 03:40:00,
2013-08-05 20:45:00,52.4,50.7,29.98,SW,217,6.0,10.0,94,0.00,,,0.00,Wunderground v.1.15,2013-08-06 03:45:00,
2013-08-05 20:55:00,52.4,50.7,29.98,SW,221,8.0,12.0,94,0.00,,,0.00,Wunderground v.1.15,2013-08-06 03:55:00,
2013-08-05 21:00:00,52.4,50.7,29.98,SW,225,8.0,10.0,94,0.00,,,0.00,Wunderground v.1.15,2013-08-06 04:00:00,
2013-08-05 21:05:00,52.3,50.6,29.98,SW,223,8.0,10.0,94,0.00,,,0.00,Wunderground v.1.15,2013-08-06 04:05:00,
2013-08-05 21:10:00,52.2,50.5,29.98,SW,228,8.0,8.0,94,0.00,,,0.00,Wunderground v.1.15,2013-08-06 04:10:00,
2013-08-05 21:15:00,52.2,50.5,29.98,SW,217,7.0,10.0,94,0.00,,,0.00,Wunderground v.1.15,2013-08-06 04:15:00,
2013-08-05 21:20:00,52.2,50.5,29.98,SW,224,8.0,10.0,94,0.00,,,0.00,Wunderground v.1.15,2013-08-06 04:20:00,
2013-08-05 21:25:00,52.3,50.6,29.98,SW,217,8.0,10.0,94,0.00,,,0.00,Wunderground v.1.15,2013-08-06 04:25:00,
2013-08-05 21:30:00,52.3,50.6,29.98,SW,221,8.0,8.0,94,0.00,,,0.00,Wunderground v.1.15,2013-08-06 04:30:00,
2013-08-05 21:35:00,52.3,50.9,29.99,SW,218,7.0,10.0,95,0.00,,,0.00,Wunderground v.1.15,2013-08-06 04:35:00,
2013-08-05 21:40:00,52.3,50.9,29.99,SW,219,5.0,5.0,95,0.00,,,0.00,Wunderground v.1.15,2013-08-06 04:40:00,
2013-08-05 21:45:00,52.4,51.3,29.99,SW,219,4.0,10.0,96,0.00,,,0.00,Wunderground v.1.15,2013-08-06 04:45:00,
2013-08-05 21:55:00,52.7,51.6,29.99,SW,216,5.0,10.0,96,0.00,,,0.00,Wunderground v.1.15,2013-08-06 04:55:00,
2013-08-05 22:00:00,52.8,51.7,29.99,SW,217,6.0,10.0,96,0.00,,,0.00,Wunderground v.1.15,2013-08-06 05:00:00,
2013-08-05 22:05:00,52.9,51.8,29.99,SW,229,7.0,10.0,96,0.00,,,0.00,Wunderground v.1.15,2013-08-06 05:05:00,
2013-08-05 22:10:00,53.0,51.9,29.99,SW,215,6.0,10.0,96,0.00,,,0.00,Wunderground v.1.15,2013-08-06 05:10:00,
2013-08-05 22:15:00,53.0,51.9,29.99,SW,217,5.0,10.0,96,0.00,,,0.00,Wunderground v.1.15,2013-08-06 05:15:00,
2013-08-05 22:25:00,53.1,52.0,29.99,SW,223,5.0,6.0,96,0.00,,,0.00,Wunderground v.1.15,2013-08-06 05:25:00,
2013-08-05 22:30:00,53.2,52.1,29.99,SW,221,5.0,10.0,96,0.00,,,0.00,Wunderground v.1.15,2013-08-06 05:30:00,
2013-08-05 22:35:00,53.2,52.1,29.99,SW,217,5.0,10.0,96,0.00,,,0.00,Wunderground v.1.15,2013-08-06 05:35:00,
2013-08-05 22:40:00,53.1,52.0,29.99,WSW,252,5.0,5.0,96,0.00,,,0.00,Wunderground v.1.15,2013-08-06 05:40:00,
2013-08-05 22:45:00,53.2,52.1,29.99,WSW,248,5.0,10.0,96,0.00,,,0.00,Wunderground v.1.15,2013-08-06 05:45:00,
2013-08-05 22:50:00,53.2,52.1,29.99,WSW,248,5.0,10.0,96,0.00,,,0.00,Wunderground v.1.15,2013-08-06 05:50:00,
2013-08-05 23:00:00,53.2,52.1,29.99,WSW,243,6.0,10.0,96,0.00,,,0.00,Wunderground v.1.15,2013-08-06 06:00:00,
2013-08-05 23:05:00,53.2,52.1,29.99,SW,227,5.0,10.0,96,0.00,,,0.00,Wunderground v.1.15,2013-08-06 06:05:00,
2013-08-05 23:10:00,53.2,52.1,29.99,SW,227,5.0,5.0,96,0.00,,,0.00,Wunderground v.1.15,2013-08-06 06:10:00,
2013-08-05 23:15:00,53.2,52.1,29.99,SW,225,5.0,10.0,96,0.00,,,0.00,Wunderground v.1.15,2013-08-06 06:15:00,
2013-08-05 23:25:00,53.3,52.2,29.99,WSW,243,4.0,10.0,96,0.00,,,0.00,Wunderground v.1.15,2013-08-06 06:25:00,
2013-08-05 23:30:00,53.3,52.2,29.99,WSW,242,4.0,10.0,96,0.00,,,0.00,Wunderground v.1.15,2013-08-06 06:30:00,
2013-08-05 23:35:00,53.4,52.3,29.99,WSW,243,3.0,10.0,96,0.00,,,0.00,Wunderground v.1.15,2013-08-06 06:35:00,
2013-08-05 23:40:00,53.4,52.3,29.99,WSW,238,3.0,10.0,96,0.00,,,0.00,Wunderground v.1.15,2013-08-06 06:40:00,
2013-08-05 23:45:00,53.4,52.3,29.99,SW,229,3.0,10.0,96,0.00,,,0.00,Wunderground v.1.15,2013-08-06 06:45:00,
2013-08-05 23:55:00,53.4,52.3,29.99,SW,229,4.0,10.0,96,0.00,,,0.00,Wunderground v.1.15,2013-08-06 06:55:00,